Ketchikan, AK

10:12 PM AKDT on August 18, 2017 (GMT -0800)
Ketchikan International

Weather History for PAKT - February, 2014

Change the Weather History Date:

Sunday, February 2, 2014

  Actual Average Record
Temperature  
Mean Temperature 34 °F -  
Max Temperature 39 °F 40 °F 50 °F (1964)
Min Temperature 26 °F 29 °F 4 °F (1968)
Degree Days  
Heating Degree Days 32    
Moisture  
Dew Point 21 °F    
Average Humidity 66    
Maximum Humidity 92    
Minimum Humidity 39    
Precipitation  
Precipitation 0.00 in - - ()
Sea Level Pressure  
Sea Level Pressure 30.27 in    
Wind  
Wind Speed 6 mph (NW)    
Max Wind Speed 12 mph    
Max Gust Speed -    
Visibility 10 miles    
Events      
Averages and records for this station are not official NWS values.
T = Trace of Precipitation, MM = Missing Value Source: NWS Daily Summary

Daily Weather History Graph

Daily Weather History Graph

Search for Another Location

Airport or City:

Trip Planner

Search our weather history database for the weather conditions in past years. The results will help you decide how hot, cold, wet, or windy it might be!

Date:

Astronomy

Feb. 02, 2014 Rise Set
Actual Time 7:36 AM AKST 4:25 PM AKST
Civil Twilight 6:56 AM AKST 5:05 PM AKST
Nautical Twilight 6:12 AM AKST 5:49 PM AKST
Astronomical Twilight 5:30 AM AKST 6:32 PM AKST
Moon 8:24 AM AKST (2/2) 9:05 PM AKST (2/2)
Length of Visible Light 10h 08m
Length of Day
8h 48m
Waxing Crescent, 12% of the Moon is Illuminated
Feb 2
Waxing Crescent
Feb 6
First Quarter
Feb 14
Full
Feb 22
Last Quarter
Feb 28
New

Hourly Weather History & Observations

Time (AKST) Temp. Windchill Dew Point Humidity Pressure Visibility Wind Dir Wind Speed Gust Speed Precip Events Conditions
12:53 AM 30.0 °F 23.2 °F 26.1 °F 85% 30.26 in 10.0 mi WNW 6.9 mph - N/A   Clear
1:53 AM 28.0 °F - 26.1 °F 92% 30.26 in 10.0 mi Calm Calm - N/A   Clear
2:53 AM 28.9 °F 21.9 °F 26.1 °F 89% 30.27 in 10.0 mi NW 6.9 mph - N/A   Clear
3:53 AM 28.9 °F 21.9 °F 25.0 °F 85% 30.26 in 10.0 mi WNW 6.9 mph - N/A   Clear
4:53 AM 28.0 °F 20.8 °F 25.0 °F 88% 30.25 in 10.0 mi WNW 6.9 mph - N/A   Clear
5:53 AM 28.9 °F 21.9 °F 24.1 °F 82% 30.24 in 10.0 mi NW 6.9 mph - N/A   Clear
6:53 AM 28.0 °F 20.8 °F 24.1 °F 85% 30.25 in 10.0 mi NW 6.9 mph - N/A   Clear
7:53 AM 28.0 °F 20.8 °F 24.1 °F 85% 30.25 in 10.0 mi NNW 6.9 mph - N/A   Clear
8:53 AM 30.0 °F 23.2 °F 25.0 °F 82% 30.26 in 10.0 mi NW 6.9 mph - N/A   Clear
9:53 AM 34.0 °F 27.2 °F 26.1 °F 73% 30.25 in 10.0 mi NNW 8.1 mph - N/A   Clear
10:53 AM 36.0 °F 29.0 °F 23.0 °F 59% 30.26 in 10.0 mi NW 9.2 mph - N/A   Clear
11:53 AM 37.0 °F 29.3 °F 21.0 °F 52% 30.25 in 10.0 mi WNW 11.5 mph - N/A   Clear
12:53 PM 37.9 °F 30.5 °F 21.0 °F 51% 30.25 in 10.0 mi NW 11.5 mph - N/A   Clear
1:53 PM 37.9 °F 32.7 °F 19.9 °F 48% 30.25 in 10.0 mi West 6.9 mph - N/A   Clear
2:53 PM 39.0 °F 34.8 °F 16.0 °F 39% 30.26 in 10.0 mi WNW 5.8 mph - N/A   Clear
3:53 PM 37.0 °F 32.4 °F 14.0 °F 39% 30.26 in 10.0 mi WNW 5.8 mph - N/A   Clear
4:53 PM 35.1 °F - 16.0 °F 46% 30.27 in 10.0 mi Calm Calm - N/A   Clear
5:53 PM 30.9 °F - 16.0 °F 54% 30.28 in 10.0 mi Calm Calm - N/A   Clear
6:53 PM 28.9 °F - 17.1 °F 61% 30.28 in 10.0 mi Calm Calm - N/A   Clear
7:53 PM 30.0 °F - 17.1 °F 59% 30.30 in 10.0 mi Calm Calm - N/A   Clear
8:53 PM 30.9 °F 27.5 °F 19.0 °F 61% 30.31 in 10.0 mi NW 3.5 mph - N/A   Clear
9:53 PM 30.0 °F 25.2 °F 16.0 °F 56% 30.33 in 10.0 mi WNW 4.6 mph - N/A   Clear
10:53 PM 28.9 °F - 14.0 °F 54% 30.35 in 10.0 mi Calm Calm - N/A   Clear
11:53 PM 26.1 °F 21.9 °F 14.0 °F 60% 30.36 in 10.0 mi WSW 3.5 mph - N/A   Clear